Regional Weather Roundup
Issued by NWS Charleston, SC

Current Version | Previous Version | Graphics & Text | Print | Product List | Glossary On
Versions: 1 2 3 4 5 6 7 8 9 10 11 12 13 14 15 16 17 18 19 20 21 22 23 24 25 26 27 28 29 30 31 32 33 34 35 36 37 38 39 40 41 42 43 44 45 46 47 48 49 50
000
ASUS42 KCHS 251925
RWRCHS

REGIONAL WEATHER ROUNDUP
NATIONAL WEATHER SERVICE CHARLESTON SC
200 PM EST THU DEC 25 2014

NOTE: "FAIR" INDICATES FEW OR NO CLOUDS BELOW 12,000 FEET WITH NO
SIGNIFICANT WEATHER AND/OR OBSTRUCTIONS TO VISIBILITY.

NOT ALL STATIONS ARE QUALITY CONTROLLED BY THE NATIONAL
WEATHER SERVICE. USE DATA WITH CAUTION...ESPECIALLY
DEWPOINT OBSERVATIONS.

SCZ027-030-031-034>040-042>050-252000-
...SOUTHEAST SOUTH CAROLINA...

CITY           SKY/WX    TMP DP  RH WIND       PRES   REMARKS
N CHARLESTON   MOSUNNY   59  37  44 W9        30.13R
WATERFRONT PRK   N/A     57 N/A N/A W5          N/A
MOUNT PLEASANT FAIR      57  39  51 W9        30.13S
PINOPOLIS      NOT AVBL
MONCKS CORNER  FAIR      61  41  48 NW5       30.13R
SUMMERVILLE    FAIR      61  41  48 W6        30.14R
BEAUFORT MCAS  SUNNY     58  39  49 W8        30.15S
BEAUFORT ARPT  FAIR      59  41  51 W7        30.14S
HILTON HEAD IS SUNNY     55  41  58 SW6       30.17S
WALTERBORO     CLEAR     61  32  33 W12       30.14S
ALLENDALE      FAIR      57  37  47 VRB7      30.13F

...SOUTHERN MIDLANDS AND PEE DEE...

CITY           SKY/WX    TMP DP  RH WIND       PRES   REMARKS
GEORGETOWN     NOT AVBL
KINGSTREE      NOT AVBL
ORANGEBURG     SUNNY     58  37  45 W9        30.13S
BARNWELL       FAIR      59  37  44 NW7       30.14F
AIKEN          FAIR      55  36  47 W10       30.16F
MANNING        FAIR      61  41  48 W7        30.12R
COLUMBIA       SUNNY     58  37  45 NW9       30.12F
SUMTER         SUNNY     58  38  47 NW8       30.10S
FLORENCE       SUNNY     60  40  47 NW8G20    30.10R
MYRTLE BEACH   SUNNY     59  43  55 NW10      30.09F
N MYRTLE BEACH SUNNY     59  41  51 W9        30.07F

$$

GAZ063-065-086>088-099>101-113>116-118-119-134>141-150-252000-
...SOUTHEAST GEORGIA...

CITY           SKY/WX    TMP DP  RH WIND       PRES   REMARKS
SAVANNAH ARPT  MOSUNNY   58  37  45 W10       30.16F
HUNTER AAF     SUNNY     59  40  48 NW9       30.14F
FORT STEWART   SUNNY     59  38  45 NW8       30.15F
STATESBORO     SUNNY     58  39  49 NW9       30.16S
SYLVANIA       CLEAR     57  41  54 NW9       30.17S
CLAXTON        FAIR      59  41  51 W10       30.17S

...CSRA...CENTRAL AND FAR SOUTHEAST GEORGIA...

CITY           SKY/WX    TMP DP  RH WIND       PRES   REMARKS
THOMSON        SUNNY     57  41  55 W6        30.20F
AUGUSTA-BUSH   SUNNY     57  35  43 VRB7      30.15F
AUGUSTA-DANIEL SUNNY     56  35  45 W9        30.15F
SWAINSBORO     FAIR      59  41  51 NW9       30.17S
VIDALIA        SUNNY     57  37  47 W5        30.18S
EASTMAN        FAIR      57  38  47 W5        30.21S
HAZLEHURST     FAIR      59  39  46 W3        30.17F
ALMA           SUNNY     58  37  45 NW10      30.18F
WAYCROSS       SUNNY     61  41  47 N9G16     30.18F
JESUP          FAIR      61  43  51 NW12      30.17F
BAXLEY         FAIR      59  37  44 W7        30.18F
BRUNSWICK      MOSUNNY   59  41  51 W8        30.18F
SAINT SIMONS   PTSUNNY   56  40  55 MISG      30.17F

$$

SCZ027-028-034-036>038-045-046-048>050-GAZ119-141-252000-
...LAKE AND SUPPLEMENTAL COASTAL OBSERVATIONS...

STATION/POSITION TIME  TEMP    WIND        PRES    WAVE   SWELL
                       AIR SEA DIR/SP/G            HT/PER HT/PER/DIR
                 (UTC) (F)     (DEG/KT/KT) (MB)    (FT/S) (FT/S/D)
UPR LAKE MARION  NOT AVBL
WINYAH BAY       1900   57     290/  7     1019.0R
LAKE MURRAY      1900   54     260/  7/  8 1019.3F
ACE BASIN NERRS  1900   57     290/  3     1021.0S
FORT PULASKI     1900   55 56  270/  7/ 10 1021.4F
SAPELO ISLAND    1900   56     280/  8     1021.0F

$$

ANZ835-935-AMZ111-154-330-350-352-354-370-450-454-472-252000-
...C-MAN AND BUOY OBSERVATIONS...

STATION/POSITION TIME  TEMP    WIND        PRES    WAVE   SWELL
                       AIR SEA DIR/SP/G            HT/PER HT/PER/DIR
                 (UTC) (F)     (DEG/KT/KT) (MB)    (FT/S) (FT/S/D)
BUOY 41004       1900   56 72  280/ 16/ 17 1019.8R   4/ 6   2/ 7
BUOY 41008       1900   52 58  310/ 14/ 16 1021.3F   2/ 3
FOLLY BEACH CMAN 1900   54     210/  9/ 10 1020.9S
CAPERS NEARSHORE 1800   53     300/ 12/ 14   N/A
FRIPP NEARSHORE  NOT AVBL


STATION/POSITION TIME  TEMP    WIND        PRES    WAVE   SWELL
                       AIR SEA DIR/SP/G            HT/PER HT/PER/DIR
                 (UTC) (F)     (DEG/KT/KT) (MB)    (FT/S) (FT/S/D)
5E ST. MARYS GA  1900      61                N/A     2/ 3
FRYING PAN BUOY  1900   56 71  280/ 14/ 19 1019.1R   6/ 6   3/190/ 7
BUOY 41025       1900   58                 1016.6R   7/ 8
CAPE LOOKOUT NC  1900   56     260/  9/ 11 1017.1R
BUOY 41002       1841   72 74  290/ 17/ 21 1018.5R
BUOY 41010       1900   69 77  330/ 16/ 19 1020.5R   6/ 6   2/ 70/11
ST AUGUSTINE FL  1900   57     330/  9/ 10 1022.4F


$$


USA.gov is the U.S. government's official web portal to all federal, state and local government web resources and services.